TimeEDT,TemperatureF,Dew PointF,Humidity,Sea Level PressureIn,VisibilityMPH,Wind Direction,Wind SpeedMPH,Gust SpeedMPH,PrecipitationIn,Events,Conditions,WindDirDegrees,DateUTC
12:53 AM,32.0,24.1,73,30.08,10.0,ENE,8.1,-,N/A,,Scattered Clouds,60,2011-10-30 04:53:00
1:53 AM,33.1,24.1,70,30.04,10.0,NE,11.5,-,N/A,,Overcast,40,2011-10-30 05:53:00
2:53 AM,33.1,23.0,66,30.03,10.0,NNE,9.2,-,N/A,,Overcast,20,2011-10-30 06:53:00
3:53 AM,32.0,25.0,75,30.04,4.0,NNE,5.8,-,0.00,Snow,Light Snow,30,2011-10-30 07:53:00
4:03 AM,30.2,26.6,86,30.00,1.8,NE,5.8,-,0.00,Snow,Light Snow,40,2011-10-30 08:03:00
4:10 AM,30.2,26.6,86,30.00,1.2,NE,4.6,-,0.00,Snow,Light Snow,40,2011-10-30 08:10:00
4:33 AM,30.2,26.6,86,29.98,1.8,NNE,8.1,-,N/A,Snow,Light Snow,30,2011-10-30 08:33:00
4:43 AM,30.2,26.6,86,29.98,2.0,NNE,5.8,-,0.00,Snow,Light Snow,20,2011-10-30 08:43:00
4:53 AM,30.0,27.0,88,30.01,2.5,North,3.5,-,0.00,Snow,Light Snow,10,2011-10-30 08:53:00
4:57 AM,30.2,26.6,86,29.98,3.0,North,4.6,-,N/A,Snow,Light Snow,360,2011-10-30 08:57:00
5:07 AM,30.2,26.6,86,29.98,2.0,NNE,4.6,-,0.00,Snow,Light Snow,30,2011-10-30 09:07:00
5:15 AM,30.2,26.6,86,29.98,2.0,NNE,6.9,-,0.00,Snow,Light Snow,20,2011-10-30 09:15:00
5:23 AM,30.2,26.6,86,29.98,1.8,NNE,6.9,-,0.00,Snow,Light Snow,20,2011-10-30 09:23:00
5:32 AM,30.2,28.4,93,29.97,1.5,North,8.1,-,0.00,Snow,Light Snow,10,2011-10-30 09:32:00
5:41 AM,30.2,28.4,93,29.96,1.8,North,8.1,-,N/A,Snow,Light Snow,10,2011-10-30 09:41:00
5:53 AM,30.0,28.0,92,29.99,2.5,North,9.2,-,0.00,Snow,Light Snow,360,2011-10-30 09:53:00
6:02 AM,30.2,28.4,93,29.95,3.0,North,8.1,-,0.00,Snow,Light Snow,360,2011-10-30 10:02:00
6:12 AM,30.2,28.4,93,29.95,3.0,North,8.1,-,0.00,Snow,Light Snow,360,2011-10-30 10:12:00
6:53 AM,30.0,27.0,88,29.96,9.0,North,10.4,-,0.00,,Overcast,360,2011-10-30 10:53:00
7:53 AM,30.0,26.1,85,29.96,10.0,North,11.5,-,N/A,,Overcast,10,2011-10-30 11:53:00
8:53 AM,30.9,27.0,85,29.94,7.0,North,13.8,21.9,N/A,,Overcast,10,2011-10-30 12:53:00
9:53 AM,32.0,28.0,85,29.92,10.0,North,12.7,-,N/A,,Overcast,360,2011-10-30 13:53:00
10:53 AM,34.0,28.0,79,29.90,10.0,North,16.1,27.6,N/A,,Overcast,350,2011-10-30 14:53:00
11:53 AM,34.0,27.0,75,29.89,10.0,North,16.1,29.9,N/A,,Overcast,360,2011-10-30 15:53:00
12:21 PM,35.6,26.6,70,29.85,10.0,North,15.0,25.3,N/A,,Overcast,360,2011-10-30 16:21:00
12:53 PM,36.0,26.1,67,29.88,8.0,North,13.8,32.2,0.00,Snow,Light Snow,360,2011-10-30 16:53:00
1:53 PM,35.1,27.0,72,29.89,9.0,NNW,24.2,31.1,0.00,,Overcast,340,2011-10-30 17:53:00
2:53 PM,35.1,25.0,67,29.91,10.0,NNW,17.3,27.6,N/A,,Overcast,330,2011-10-30 18:53:00
3:06 PM,33.8,24.8,70,29.89,10.0,NNW,25.3,32.2,N/A,,Overcast,330,2011-10-30 19:06:00
3:53 PM,34.0,24.1,67,29.94,10.0,North,20.7,29.9,N/A,,Overcast,350,2011-10-30 19:53:00
4:25 PM,33.8,24.8,70,29.92,9.0,North,19.6,36.8,N/A,,Mostly Cloudy,350,2011-10-30 20:25:00
4:53 PM,33.1,23.0,66,29.96,10.0,North,21.9,33.4,N/A,,Overcast,350,2011-10-30 20:53:00
5:21 PM,33.8,24.8,70,29.94,10.0,NNW,13.8,31.1,N/A,,Overcast,340,2011-10-30 21:21:00
5:33 PM,33.8,23.0,65,29.94,10.0,NNW,17.3,29.9,N/A,,Overcast,340,2011-10-30 21:33:00
5:53 PM,33.1,23.0,66,29.98,10.0,NNW,17.3,25.3,N/A,,Overcast,330,2011-10-30 21:53:00
6:53 PM,33.1,21.9,64,29.99,10.0,NNW,16.1,23.0,N/A,,Overcast,330,2011-10-30 22:53:00
7:53 PM,33.1,23.0,66,29.99,10.0,NNW,20.7,29.9,N/A,,Overcast,330,2011-10-30 23:53:00
8:53 PM,33.1,23.0,66,30.01,10.0,NW,16.1,25.3,N/A,,Overcast,320,2011-10-31 00:53:00
9:53 PM,33.8,23.0,65,30.00,10.0,NW,15.0,21.9,N/A,,Overcast,320,2011-10-31 01:53:00
10:53 PM,32.0,21.9,66,30.04,10.0,NW,12.7,-,N/A,,Partly Cloudy,320,2011-10-31 02:53:00
11:53 PM,30.9,21.9,69,30.06,10.0,NW,10.4,-,N/A,,Clear,320,2011-10-31 03:53:00